Time,TemperatureF,DewpointF,PressureIn,WindDirection,WindDirectionDegrees,WindSpeedMPH,WindSpeedGustMPH,Humidity,HourlyPrecipIn,Conditions,Clouds,dailyrainin,SoftwareType,DateUTC
2013-01-01 00:02:00,22.0,16.0,-100.00,North,5,5.0,13.0,75,-99.99,,,-99.99,,2013-01-01 06:02:00,
2013-01-01 00:12:00,22.0,16.0,-100.00,North,0,7.0,13.0,75,-99.99,,,-99.99,,2013-01-01 06:12:00,
2013-01-01 00:22:00,22.0,16.0,-100.00,NNE,15,11.0,15.0,75,-99.99,,,-99.99,,2013-01-01 06:22:00,
2013-01-01 00:32:00,22.0,16.0,-100.00,NNE,15,11.0,15.0,75,-99.99,,,-99.99,,2013-01-01 06:32:00,
2013-01-01 00:42:00,22.0,16.0,-100.00,North,10,7.0,16.0,75,-99.99,,,-99.99,,2013-01-01 06:42:00,
2013-01-01 00:52:00,22.0,14.0,-100.00,NNE,30,12.0,18.0,73,-99.99,,,-99.99,,2013-01-01 06:52:00,
2013-01-01 01:02:00,22.0,14.0,-100.00,NNE,30,12.0,18.0,73,-99.99,,,-99.99,,2013-01-01 07:02:00,
2013-01-01 01:12:00,22.0,14.0,-100.00,NNE,15,13.0,16.0,71,-99.99,,,-99.99,,2013-01-01 07:12:00,
2013-01-01 01:22:00,22.0,13.0,-100.00,NE,35,11.0,15.0,70,-99.99,,,-99.99,,2013-01-01 07:22:00,
2013-01-01 01:32:00,22.0,13.0,-100.00,NE,35,11.0,15.0,70,-99.99,,,-99.99,,2013-01-01 07:32:00,
2013-01-01 01:42:00,21.0,13.0,-100.00,NNE,20,10.0,15.0,70,-99.99,,,-99.99,,2013-01-01 07:42:00,
2013-01-01 01:53:00,21.0,13.0,-100.00,NNE,20,9.0,15.0,69,-99.99,,,-99.99,,2013-01-01 07:53:00,
2013-01-01 02:02:00,21.0,13.0,-100.00,NNE,20,9.0,15.0,69,-99.99,,,-99.99,,2013-01-01 08:02:00,
2013-01-01 02:12:00,21.0,13.0,-100.00,North,5,8.0,17.0,69,-99.99,,,-99.99,,2013-01-01 08:12:00,
2013-01-01 02:22:00,21.0,12.0,-100.00,NNE,20,11.0,16.0,69,-99.99,,,-99.99,,2013-01-01 08:22:00,
2013-01-01 02:32:00,21.0,12.0,-100.00,NNE,20,11.0,16.0,69,-99.99,,,-99.99,,2013-01-01 08:32:00,
2013-01-01 02:42:00,20.0,12.0,-100.00,NE,35,2.0,16.0,69,-99.99,,,-99.99,,2013-01-01 08:42:00,
2013-01-01 02:53:00,20.0,11.0,-100.00,NNE,25,9.0,13.0,69,-99.99,,,-99.99,,2013-01-01 08:53:00,
2013-01-01 03:02:00,20.0,11.0,-100.00,NNE,25,9.0,13.0,69,-99.99,,,-99.99,,2013-01-01 09:02:00,
2013-01-01 03:12:00,20.0,11.0,-100.00,North,0,4.0,14.0,69,-99.99,,,-99.99,,2013-01-01 09:12:00,
2013-01-01 03:22:00,20.0,11.0,-100.00,NNE,25,6.0,14.0,68,-99.99,,,-99.99,,2013-01-01 09:22:00,
2013-01-01 03:32:00,20.0,11.0,-100.00,NNE,25,6.0,14.0,68,-99.99,,,-99.99,,2013-01-01 09:32:00,
2013-01-01 03:42:00,20.0,11.0,-100.00,NNE,20,7.0,11.0,68,-99.99,,,-99.99,,2013-01-01 09:42:00,
2013-01-01 03:52:00,20.0,11.0,-100.00,NNE,20,5.0,10.0,68,-99.99,,,-99.99,,2013-01-01 09:52:00,
2013-01-01 04:02:00,20.0,11.0,-100.00,NNE,20,5.0,10.0,68,-99.99,,,-99.99,,2013-01-01 10:02:00,
2013-01-01 04:12:00,19.0,10.0,-100.00,North,350,6.0,11.0,68,-99.99,,,-99.99,,2013-01-01 10:12:00,
2013-01-01 04:22:00,18.0,10.0,-100.00,North,0,4.0,11.0,68,-99.99,,,-99.99,,2013-01-01 10:22:00,
2013-01-01 04:33:00,18.0,10.0,-100.00,North,0,4.0,11.0,68,-99.99,,,-99.99,,2013-01-01 10:33:00,
2013-01-01 04:42:00,18.0,10.0,-100.00,North,0,6.0,12.0,69,-99.99,,,-99.99,,2013-01-01 10:42:00,
2013-01-01 04:53:00,17.0,9.0,-100.00,North,355,1.0,8.0,69,-99.99,,,-99.99,,2013-01-01 10:53:00,
2013-01-01 05:02:00,17.0,9.0,-100.00,North,355,1.0,8.0,69,-99.99,,,-99.99,,2013-01-01 11:02:00,
2013-01-01 05:12:00,16.0,8.0,-100.00,NNW,345,1.0,11.0,70,-99.99,,,-99.99,,2013-01-01 11:12:00,
2013-01-01 05:22:00,15.0,8.0,-100.00,North,0,4.0,11.0,71,-99.99,,,-99.99,,2013-01-01 11:22:00,
2013-01-01 05:32:00,15.0,8.0,-100.00,North,0,4.0,11.0,71,-99.99,,,-99.99,,2013-01-01 11:32:00,
2013-01-01 05:42:00,15.0,7.0,-100.00,North,10,0.0,9.0,71,-99.99,,,-99.99,,2013-01-01 11:42:00,
2013-01-01 05:53:00,15.0,8.0,-100.00,NNW,345,0.0,6.0,72,-99.99,,,-99.99,,2013-01-01 11:53:00,
2013-01-01 06:02:00,15.0,8.0,-100.00,NNW,345,0.0,6.0,72,-99.99,,,-99.99,,2013-01-01 12:02:00,
2013-01-01 06:12:00,15.0,8.0,-100.00,NW,315,0.0,0.0,73,-99.99,,,-99.99,,2013-01-01 12:12:00,
2013-01-01 06:22:00,15.0,8.0,-100.00,NNE,20,0.0,0.0,73,-99.99,,,-99.99,,2013-01-01 12:22:00,
2013-01-01 06:33:00,14.0,7.0,-100.00,NE,40,0.0,0.0,73,-99.99,,,-99.99,,2013-01-01 12:33:00,
2013-01-01 06:42:00,14.0,7.0,-100.00,NE,40,0.0,0.0,73,-99.99,,,-99.99,,2013-01-01 12:42:00,
2013-01-01 06:53:00,14.0,7.0,-100.00,North,350,4.0,7.0,74,-99.99,,,-99.99,,2013-01-01 12:53:00,
2013-01-01 07:02:00,14.0,7.0,-100.00,North,350,4.0,7.0,74,-99.99,,,-99.99,,2013-01-01 13:02:00,
2013-01-01 07:12:00,14.0,7.0,-100.00,North,0,4.0,9.0,74,-99.99,,,-99.99,,2013-01-01 13:12:00,
2013-01-01 07:22:00,13.0,7.0,-100.00,NNE,15,6.0,11.0,75,-99.99,,,-99.99,,2013-01-01 13:22:00,
2013-01-01 07:33:00,13.0,7.0,-100.00,NNE,15,6.0,11.0,75,-99.99,,,-99.99,,2013-01-01 13:33:00,
2013-01-01 07:42:00,13.0,7.0,-100.00,North,350,4.0,7.0,75,-99.99,,,-99.99,,2013-01-01 13:42:00,
2013-01-01 07:53:00,13.0,6.0,-100.00,NNW,345,0.0,5.0,76,-99.99,,,-99.99,,2013-01-01 13:53:00,
2013-01-01 08:02:00,13.0,6.0,-100.00,NNW,345,0.0,5.0,76,-99.99,,,-99.99,,2013-01-01 14:02:00,
2013-01-01 08:12:00,12.0,6.0,-100.00,North,350,1.0,7.0,76,-99.99,,,-99.99,,2013-01-01 14:12:00,
2013-01-01 08:22:00,13.0,6.0,-100.00,North,10,2.0,6.0,76,-99.99,,,-99.99,,2013-01-01 14:22:00,
2013-01-01 08:32:00,13.0,6.0,-100.00,North,10,2.0,6.0,76,-99.99,,,-99.99,,2013-01-01 14:32:00,
2013-01-01 08:42:00,13.0,7.0,-100.00,North,0,4.0,11.0,76,-99.99,,,-99.99,,2013-01-01 14:42:00,
2013-01-01 08:53:00,14.0,8.0,-100.00,North,350,2.0,11.0,76,-99.99,,,-99.99,,2013-01-01 14:53:00,
2013-01-01 09:03:00,14.0,8.0,-100.00,North,350,2.0,11.0,76,-99.99,,,-99.99,,2013-01-01 15:03:00,
2013-01-01 09:12:00,15.0,8.0,-100.00,NNE,15,9.0,15.0,75,-99.99,,,-99.99,,2013-01-01 15:12:00,
2013-01-01 09:22:00,15.0,8.0,-100.00,North,0,9.0,18.0,73,-99.99,,,-99.99,,2013-01-01 15:22:00,
2013-01-01 09:33:00,17.0,9.0,-100.00,NNE,25,6.0,14.0,71,-99.99,,,-99.99,,2013-01-01 15:33:00,
2013-01-01 09:42:00,17.0,9.0,-100.00,NNE,25,6.0,14.0,71,-99.99,,,-99.99,,2013-01-01 15:42:00,
2013-01-01 09:53:00,17.0,9.0,-100.00,NNW,345,2.0,14.0,70,-99.99,,,-99.99,,2013-01-01 15:53:00,
2013-01-01 10:02:00,17.0,9.0,-100.00,NNW,345,2.0,14.0,70,-99.99,,,-99.99,,2013-01-01 16:02:00,
2013-01-01 10:12:00,19.0,10.0,-100.00,North,5,1.0,8.0,68,-99.99,,,-99.99,,2013-01-01 16:12:00,
2013-01-01 10:22:00,19.0,10.0,-100.00,North,0,6.0,13.0,65,-99.99,,,-99.99,,2013-01-01 16:22:00,
2013-01-01 10:33:00,20.0,9.0,-100.00,North,0,3.0,12.0,62,-99.99,,,-99.99,,2013-01-01 16:33:00,
2013-01-01 10:42:00,20.0,9.0,-100.00,North,0,3.0,12.0,62,-99.99,,,-99.99,,2013-01-01 16:42:00,
2013-01-01 10:53:00,21.0,9.0,-100.00,North,5,7.0,11.0,60,-99.99,,,-99.99,,2013-01-01 16:53:00,
2013-01-01 11:02:00,21.0,9.0,-100.00,North,5,7.0,11.0,60,-99.99,,,-99.99,,2013-01-01 17:02:00,
2013-01-01 11:12:00,21.0,9.0,-100.00,North,5,4.0,11.0,59,-99.99,,,-99.99,,2013-01-01 17:12:00,
2013-01-01 11:22:00,23.0,10.0,-100.00,NW,305,2.0,8.0,57,-99.99,,,-99.99,,2013-01-01 17:22:00,
2013-01-01 11:33:00,23.0,9.0,-100.00,NE,55,2.0,8.0,54,-99.99,,,-99.99,,2013-01-01 17:33:00,
2013-01-01 11:43:00,23.0,9.0,-100.00,NE,55,2.0,8.0,54,-99.99,,,-99.99,,2013-01-01 17:43:00,
2013-01-01 11:53:00,24.0,9.0,-100.00,NW,320,4.0,10.0,52,-99.99,,,-99.99,,2013-01-01 17:53:00,
2013-01-01 12:03:00,24.0,9.0,-100.00,NW,320,4.0,10.0,52,-99.99,,,-99.99,,2013-01-01 18:03:00,
2013-01-01 12:12:00,23.0,8.0,-100.00,NW,320,4.0,10.0,51,-99.99,,,-99.99,,2013-01-01 18:12:00,
2013-01-01 12:22:00,24.0,8.0,-100.00,NNW,335,4.0,11.0,51,-99.99,,,-99.99,,2013-01-01 18:22:00,
2013-01-01 12:33:00,24.0,8.0,-100.00,NNW,335,7.0,11.0,50,-99.99,,,-99.99,,2013-01-01 18:33:00,
2013-01-01 12:42:00,24.0,8.0,-100.00,NNW,335,7.0,11.0,50,-99.99,,,-99.99,,2013-01-01 18:42:00,
2013-01-01 12:53:00,25.0,8.0,-100.00,NW,325,5.0,11.0,49,-99.99,,,-99.99,,2013-01-01 18:53:00,
2013-01-01 13:02:00,25.0,8.0,-100.00,NW,325,5.0,11.0,49,-99.99,,,-99.99,,2013-01-01 19:02:00,
2013-01-01 13:12:00,24.0,7.0,-100.00,WNW,285,5.0,14.0,48,-99.99,,,-99.99,,2013-01-01 19:12:00,
2013-01-01 13:22:00,24.0,8.0,-100.00,NNW,330,7.0,13.0,48,-99.99,,,-99.99,,2013-01-01 19:22:00,
2013-01-01 13:33:00,24.0,8.0,-100.00,NNW,330,7.0,13.0,48,-99.99,,,-99.99,,2013-01-01 19:33:00,
2013-01-01 13:42:00,24.0,7.0,-100.00,NW,315,7.0,16.0,48,-99.99,,,-99.99,,2013-01-01 19:42:00,
2013-01-01 13:53:00,24.0,7.0,-100.00,NNW,340,8.0,13.0,47,-99.99,,,-99.99,,2013-01-01 19:53:00,
2013-01-01 14:02:00,24.0,7.0,-100.00,NNW,340,8.0,13.0,47,-99.99,,,-99.99,,2013-01-01 20:02:00,
2013-01-01 14:12:00,25.0,7.0,-100.00,NNW,330,4.0,14.0,47,-99.99,,,-99.99,,2013-01-01 20:12:00,
2013-01-01 14:23:00,26.0,8.0,-100.00,NW,315,4.0,9.0,46,-99.99,,,-99.99,,2013-01-01 20:23:00,
2013-01-01 14:32:00,26.0,8.0,-100.00,NW,315,4.0,9.0,46,-99.99,,,-99.99,,2013-01-01 20:32:00,
2013-01-01 14:42:00,25.0,6.0,-100.00,NW,325,8.0,14.0,45,-99.99,,,-99.99,,2013-01-01 20:42:00,
2013-01-01 14:53:00,25.0,7.0,-100.00,NNW,335,4.0,14.0,45,-99.99,,,-99.99,,2013-01-01 20:53:00,
2013-01-01 15:03:00,25.0,7.0,-100.00,NNW,335,4.0,14.0,45,-99.99,,,-99.99,,2013-01-01 21:03:00,
2013-01-01 15:12:00,25.0,7.0,-100.00,NW,325,8.0,14.0,45,-99.99,,,-99.99,,2013-01-01 21:12:00,
2013-01-01 15:22:00,25.0,7.0,-100.00,NNW,340,9.0,13.0,45,-99.99,,,-99.99,,2013-01-01 21:22:00,
2013-01-01 15:33:00,25.0,7.0,-100.00,NNW,340,9.0,13.0,45,-99.99,,,-99.99,,2013-01-01 21:33:00,
2013-01-01 15:42:00,24.0,6.0,-100.00,North,355,5.0,14.0,44,-99.99,,,-99.99,,2013-01-01 21:42:00,
2013-01-01 15:53:00,24.0,6.0,-100.00,NW,325,9.0,14.0,45,-99.99,,,-99.99,,2013-01-01 21:53:00,
2013-01-01 16:02:00,24.0,6.0,-100.00,NW,325,9.0,14.0,45,-99.99,,,-99.99,,2013-01-01 22:02:00,
2013-01-01 16:12:00,23.0,6.0,-100.00,WNW,285,4.0,13.0,46,-99.99,,,-99.99,,2013-01-01 22:12:00,
2013-01-01 16:22:00,22.0,5.0,-100.00,WNW,300,4.0,11.0,47,-99.99,,,-99.99,,2013-01-01 22:22:00,
2013-01-01 16:33:00,22.0,5.0,-100.00,WNW,300,4.0,11.0,47,-99.99,,,-99.99,,2013-01-01 22:33:00,
2013-01-01 16:42:00,22.0,6.0,-100.00,NNW,330,4.0,11.0,49,-99.99,,,-99.99,,2013-01-01 22:42:00,
2013-01-01 16:53:00,21.0,5.0,-100.00,NW,310,7.0,13.0,50,-99.99,,,-99.99,,2013-01-01 22:53:00,
2013-01-01 17:02:00,21.0,5.0,-100.00,NW,310,7.0,13.0,50,-99.99,,,-99.99,,2013-01-01 23:02:00,
2013-01-01 17:12:00,20.0,6.0,-100.00,NW,325,9.0,13.0,52,-99.99,,,-99.99,,2013-01-01 23:12:00,
2013-01-01 17:22:00,19.0,5.0,-100.00,NW,305,3.0,12.0,53,-99.99,,,-99.99,,2013-01-01 23:22:00,
2013-01-01 17:32:00,19.0,5.0,-100.00,NW,315,1.0,10.0,54,-99.99,,,-99.99,,2013-01-01 23:32:00,
2013-01-01 17:42:00,19.0,5.0,-100.00,NW,315,1.0,10.0,54,-99.99,,,-99.99,,2013-01-01 23:42:00,
2013-01-01 17:53:00,18.0,5.0,-100.00,WNW,295,1.0,6.0,56,-99.99,,,-99.99,,2013-01-01 23:53:00,
2013-01-01 18:02:00,18.0,5.0,-100.00,WNW,295,1.0,6.0,56,-99.99,,,-99.99,,2013-01-02 00:02:00,
2013-01-01 18:12:00,18.0,6.0,-100.00,WNW,300,8.0,13.0,58,-99.99,,,-99.99,,2013-01-02 00:12:00,
2013-01-01 18:22:00,17.0,5.0,-100.00,NW,310,4.0,11.0,59,-99.99,,,-99.99,,2013-01-02 00:22:00,
2013-01-01 18:32:00,17.0,5.0,-100.00,NW,310,4.0,11.0,59,-99.99,,,-99.99,,2013-01-02 00:32:00,
2013-01-01 18:42:00,17.0,5.0,-100.00,NW,310,6.0,10.0,60,-99.99,,,-99.99,,2013-01-02 00:42:00,
2013-01-01 18:53:00,16.0,5.0,-100.00,WNW,300,3.0,8.0,61,-99.99,,,-99.99,,2013-01-02 00:53:00,
2013-01-01 19:02:00,16.0,5.0,-100.00,WNW,300,3.0,8.0,61,-99.99,,,-99.99,,2013-01-02 01:02:00,
2013-01-01 19:12:00,16.0,5.0,-100.00,WNW,300,5.0,9.0,62,-99.99,,,-99.99,,2013-01-02 01:12:00,
2013-01-01 19:22:00,16.0,5.0,-100.00,WNW,300,6.0,10.0,63,-99.99,,,-99.99,,2013-01-02 01:22:00,
2013-01-01 19:32:00,15.0,5.0,-100.00,NW,320,5.0,11.0,64,-99.99,,,-99.99,,2013-01-02 01:32:00,
2013-01-01 19:42:00,15.0,5.0,-100.00,NW,320,5.0,11.0,64,-99.99,,,-99.99,,2013-01-02 01:42:00,
2013-01-01 19:52:00,15.0,5.0,-100.00,NW,320,4.0,11.0,65,-99.99,,,-99.99,,2013-01-02 01:52:00,
2013-01-01 20:02:00,15.0,5.0,-100.00,NW,320,4.0,11.0,65,-99.99,,,-99.99,,2013-01-02 02:02:00,
2013-01-01 20:12:00,15.0,5.0,-100.00,NW,310,4.0,14.0,66,-99.99,,,-99.99,,2013-01-02 02:12:00,
2013-01-01 20:22:00,14.0,5.0,-100.00,WNW,295,4.0,11.0,66,-99.99,,,-99.99,,2013-01-02 02:22:00,
2013-01-01 20:32:00,14.0,5.0,-100.00,NW,325,4.0,10.0,67,-99.99,,,-99.99,,2013-01-02 02:32:00,
2013-01-01 20:42:00,14.0,5.0,-100.00,NW,325,4.0,10.0,67,-99.99,,,-99.99,,2013-01-02 02:42:00,
2013-01-01 20:53:00,13.0,5.0,-100.00,WNW,295,5.0,10.0,67,-99.99,,,-99.99,,2013-01-02 02:53:00,
2013-01-01 21:02:00,13.0,5.0,-100.00,WNW,295,5.0,10.0,67,-99.99,,,-99.99,,2013-01-02 03:02:00,
2013-01-01 21:12:00,13.0,5.0,-100.00,WNW,300,6.0,10.0,68,-99.99,,,-99.99,,2013-01-02 03:12:00,
2013-01-01 21:22:00,13.0,5.0,-100.00,WNW,300,5.0,9.0,68,-99.99,,,-99.99,,2013-01-02 03:22:00,
2013-01-01 21:32:00,13.0,5.0,-100.00,WNW,300,5.0,9.0,68,-99.99,,,-99.99,,2013-01-02 03:32:00,
2013-01-01 21:42:00,13.0,5.0,-100.00,NW,305,5.0,9.0,69,-99.99,,,-99.99,,2013-01-02 03:42:00,
2013-01-01 21:53:00,12.0,4.0,-100.00,WNW,295,4.0,9.0,70,-99.99,,,-99.99,,2013-01-02 03:53:00,
2013-01-01 22:02:00,12.0,4.0,-100.00,WNW,295,4.0,9.0,70,-99.99,,,-99.99,,2013-01-02 04:02:00,
2013-01-01 22:12:00,12.0,4.0,-100.00,NW,310,4.0,10.0,70,-99.99,,,-99.99,,2013-01-02 04:12:00,
2013-01-01 22:22:00,12.0,4.0,-100.00,NW,305,4.0,9.0,70,-99.99,,,-99.99,,2013-01-02 04:22:00,
2013-01-01 22:32:00,12.0,5.0,-100.00,NW,305,4.0,11.0,71,-99.99,,,-99.99,,2013-01-02 04:32:00,
2013-01-01 22:42:00,12.0,5.0,-100.00,NW,305,4.0,11.0,71,-99.99,,,-99.99,,2013-01-02 04:42:00,
2013-01-01 22:52:00,12.0,4.0,-100.00,NW,320,4.0,9.0,70,-99.99,,,-99.99,,2013-01-02 04:52:00,
2013-01-01 23:03:00,12.0,4.0,-100.00,NW,320,4.0,9.0,70,-99.99,,,-99.99,,2013-01-02 05:03:00,
2013-01-01 23:12:00,12.0,4.0,-100.00,WNW,300,2.0,7.0,71,-99.99,,,-99.99,,2013-01-02 05:12:00,
2013-01-01 23:22:00,11.0,4.0,-100.00,WNW,290,1.0,5.0,71,-99.99,,,-99.99,,2013-01-02 05:22:00,
2013-01-01 23:33:00,11.0,4.0,-100.00,WNW,290,1.0,5.0,71,-99.99,,,-99.99,,2013-01-02 05:33:00,
2013-01-01 23:42:00,11.0,3.0,-100.00,WNW,300,0.0,0.0,71,-99.99,,,-99.99,,2013-01-02 05:42:00,
2013-01-01 23:53:00,11.0,3.0,-100.00,SW,235,1.0,7.0,71,-99.99,,,-99.99,,2013-01-02 05:53:00,